| time (UTC) | temp C | wind direction | speed KPH | gust KPH | rain 1hr cm | rain 24hr cm | rain mn cm | humidity % | barometer mb |
| 20260503211330 | 17 | 248 | 8.0 | 24.1 | 0.00 | 0.00 | 0.00 | 55 | 1009.1 |
| 20260503210328 | 18 | 360 | 4.8 | 19.3 | 0.00 | 0.00 | 0.00 | 51 | 1009.2 |
| 20260503205329 | 18 | 360 | 9.7 | 19.3 | 0.00 | 0.00 | 0.00 | 52 | 1009.2 |
| 20260503204346 | 18 | 287 | 8.0 | 19.3 | 0.00 | 0.00 | 0.00 | 52 | 1009.4 |
| 20260503203321 | 17 | 360 | 8.0 | 14.5 | 0.00 | 0.00 | 0.00 | 55 | 1009.3 |
| 20260503202328 | 17 | 250 | 4.8 | 17.7 | 0.00 | 0.00 | 0.00 | 57 | 1009.5 |
| 20260503201328 | 16 | 226 | 4.8 | 16.1 | 0.00 | 0.00 | 0.00 | 57 | 1009.4 |
| 20260503200343 | 17 | 193 | 6.4 | 17.7 | 0.00 | 0.00 | 0.00 | 54 | 1009.4 |
| 20260503195328 | 16 | 257 | 3.2 | 16.1 | 0.00 | 0.00 | 0.00 | 55 | 1009.5 |
| 20260503194331 | 16 | 160 | 4.8 | 14.5 | 0.00 | 0.00 | 0.00 | 56 | 1009.5 |
| 20260503193331 | 16 | 271 | 4.8 | 19.3 | 0.00 | 0.00 | 0.00 | 56 | 1009.5 |
| 20260503192414 | 16 | 261 | 3.2 | 14.5 | 0.00 | 0.00 | 0.00 | 57 | 1009.6 |
| 20260503191325 | 16 | 234 | 1.6 | 17.7 | 0.00 | 0.00 | 0.00 | 53 | 1009.6 |
| 20260503190321 | 17 | 261 | 3.2 | 17.7 | 0.00 | 0.00 | 0.00 | 52 | 1009.6 |
| 20260503185345 | 17 | 360 | 3.2 | 22.5 | 0.00 | 0.00 | 0.00 | 50 | 1009.5 |
| 20260503184345 | 17 | 267 | 6.4 | 11.3 | 0.00 | 0.00 | 0.00 | 53 | 1009.6 |
| 20260503183408 | 17 | 135 | 4.8 | 17.7 | 0.00 | 0.00 | 0.00 | 51 | 1009.6 |
| 20260503182342 | 17 | 191 | 6.4 | 17.7 | 0.00 | 0.00 | 0.00 | 53 | 1009.6 |
| 20260503181341 | 17 | 313 | 3.2 | 17.7 | 0.00 | 0.00 | 0.00 | 55 | 1009.6 |
| 20260503180339 | 16 | 140 | 3.2 | 16.1 | 0.00 | 0.00 | 0.00 | 58 | 1009.5 |
| 20260503175336 | 16 | 360 | 3.2 | 12.9 | 0.00 | 0.00 | 0.00 | 59 | 1009.5 |
| 20260503174335 | 15 | 281 | 3.2 | 19.3 | 0.00 | 0.00 | 0.00 | 62 | 1009.4 |
| 20260503173331 | 15 | 221 | 3.2 | 11.3 | 0.00 | 0.00 | 0.00 | 65 | 1009.4 |
| 20260503172326 | 14 | 360 | 3.2 | 9.7 | 0.00 | 0.00 | 0.00 | 69 | 1009.5 |
| 20260503171326 | 13 | 355 | 4.8 | 6.4 | 0.00 | 0.00 | 0.00 | 70 | 1009.5 |
| 20260503170352 | 13 | 326 | 4.8 | 11.3 | 0.00 | 0.00 | 0.00 | 71 | 1009.5 |
| 20260503150331 | 12 | 223 | 0.0 | 4.8 | 0.00 | 0.00 | 0.00 | 80 | 1008.9 |
| 20260503131327 | 11 | 270 | 0.0 | 0.0 | 0.00 | 0.00 | 0.00 | 79 | 1007.7 |
| 20260503130325 | 11 | 270 | 0.0 | 0.0 | 0.00 | 0.00 | 0.00 | 79 | 1007.7 |
| 20260503110345 | 11 | 263 | 0.0 | 0.0 | 0.00 | 0.00 | 0.00 | 78 | 1007.8 |
| 20260503090341 | 11 | 257 | 3.2 | 9.7 | 0.00 | 0.00 | 0.00 | 77 | 1008.0 |
| 20260503081327 | 11 | 266 | 3.2 | 8.0 | 0.00 | 0.00 | 0.00 | 77 | 1008.5 |
| 20260503080323 | 11 | 286 | 4.8 | 9.7 | 0.00 | 0.00 | 0.00 | 77 | 1008.5 |
| 20260503072325 | 11 | 276 | 0.0 | 6.4 | 0.00 | 0.00 | 0.00 | 77 | 1008.5 |
| 20260503071328 | 11 | 270 | 3.2 | 8.0 | 0.00 | 0.00 | 0.00 | 77 | 1008.5 |
| 20260503070328 | 11 | 315 | 1.6 | 6.4 | 0.00 | 0.00 | 0.00 | 77 | 1008.5 |
| 20260503054344 | 11 | 277 | 0.0 | 6.4 | 0.00 | 0.00 | 0.00 | 77 | 1008.9 |
| 20260503053344 | 12 | 261 | 0.0 | 4.8 | 0.00 | 0.00 | 0.00 | 76 | 1008.9 |
| 20260503052345 | 12 | 278 | 1.6 | 11.3 | 0.00 | 0.00 | 0.00 | 76 | 1008.9 |
| 20260503051345 | 12 | 257 | 4.8 | 14.5 | 0.00 | 0.00 | 0.00 | 75 | 1009.0 |
| 20260503050342 | 12 | 255 | 6.4 | 17.7 | 0.00 | 0.00 | 0.00 | 76 | 1009.0 |
| 20260503045343 | 12 | 254 | 6.4 | 12.9 | 0.00 | 0.00 | 0.00 | 75 | 1008.9 |
| 20260503044343 | 12 | 233 | 3.2 | 9.7 | 0.00 | 0.00 | 0.00 | 76 | 1008.8 |
| 20260503043346 | 12 | 275 | 4.8 | 11.3 | 0.00 | 0.00 | 0.00 | 76 | 1008.8 |
| 20260503042347 | 12 | 261 | 6.4 | 11.3 | 0.00 | 0.00 | 0.00 | 75 | 1008.7 |
| 20260503041345 | 12 | 244 | 3.2 | 9.7 | 0.00 | 0.00 | 0.00 | 75 | 1008.6 |
| 20260503040343 | 12 | 265 | 0.0 | 8.0 | 0.00 | 0.00 | 0.00 | 75 | 1008.6 |
| 20260503035340 | 12 | 240 | 4.8 | 16.1 | 0.00 | 0.00 | 0.00 | 74 | 1008.4 |
| 20260503034340 | 12 | 286 | 3.2 | 8.0 | 0.00 | 0.00 | 0.00 | 74 | 1008.3 |
| 20260503033345 | 12 | 266 | 3.2 | 9.7 | 0.00 | 0.00 | 0.00 | 74 | 1008.3 |
| 20260503032342 | 12 | 219 | 4.8 | 11.3 | 0.00 | 0.00 | 0.00 | 74 | 1008.1 |
| 20260503031342 | 12 | 276 | 6.4 | 14.5 | 0.00 | 0.00 | 0.00 | 74 | 1007.9 |
| 20260503030341 | 12 | 268 | 6.4 | 16.1 | 0.00 | 0.00 | 0.00 | 73 | 1007.9 |
| 20260503025322 | 12 | 220 | 3.2 | 24.1 | 0.00 | 0.00 | 0.00 | 73 | 1007.7 |
| 20260503024326 | 12 | 292 | 4.8 | 20.9 | 0.00 | 0.00 | 0.00 | 73 | 1007.4 |
| 20260503023406 | 13 | 161 | 11.3 | 22.5 | 0.00 | 0.00 | 0.00 | 72 | 1007.4 |
| 20260503022340 | 13 | 229 | 8.0 | 22.5 | 0.00 | 0.00 | 0.00 | 72 | 1007.4 |
| 20260503021339 | 13 | 269 | 8.0 | 22.5 | 0.00 | 0.00 | 0.00 | 72 | 1007.5 |
| 20260503020341 | 13 | 218 | 3.2 | 22.5 | 0.00 | 0.00 | 0.00 | 71 | 1007.5 |
| 20260503015339 | 14 | 243 | 8.0 | 20.9 | 0.00 | 0.00 | 0.00 | 70 | 1007.5 |
| 20260503014341 | 14 | 257 | 11.3 | 22.5 | 0.00 | 0.00 | 0.00 | 69 | 1007.5 |
| 20260503013344 | 15 | 287 | 9.7 | 19.3 | 0.00 | 0.00 | 0.00 | 69 | 1007.5 |
| 20260503012344 | 15 | 294 | 8.0 | 20.9 | 0.00 | 0.00 | 0.00 | 68 | 1007.6 |
| 20260503010340 | 15 | 254 | 4.8 | 17.7 | 0.00 | 0.00 | 0.00 | 67 | 1007.6 |
| 20260503005342 | 15 | 229 | 3.2 | 11.3 | 0.00 | 0.00 | 0.00 | 67 | 1007.7 |
| 20260503004341 | 16 | 253 | 11.3 | 20.9 | 0.00 | 0.00 | 0.00 | 67 | 1007.7 |
| 20260503003406 | 16 | 261 | 9.7 | 29.0 | 0.00 | 0.00 | 0.00 | 65 | 1007.7 |
| 20260503002344 | 16 | 243 | 6.4 | 20.9 | 0.00 | 0.00 | 0.00 | 65 | 1007.8 |
| 20260503001341 | 16 | 290 | 9.7 | 17.7 | 0.00 | 0.00 | 0.00 | 64 | 1007.8 |
| 20260503000344 | 16 | 250 | 8.0 | 22.5 | 0.00 | 0.00 | 0.00 | 63 | 1007.8 |
| 20260502235324 | 17 | 245 | 8.0 | 27.4 | 0.00 | 0.00 | 0.00 | 62 | 1007.8 |
| 20260502234350 | 17 | 281 | 6.4 | 20.9 | 0.00 | 0.00 | 0.00 | 62 | 1007.8 |
| 20260502233327 | 17 | 234 | 6.4 | 16.1 | 0.00 | 0.00 | 0.00 | 63 | 1007.8 |
| 20260502232327 | 17 | 254 | 8.0 | 17.7 | 0.00 | 0.00 | 0.00 | 62 | 1008.0 |
| 20260502231352 | 18 | 360 | 6.4 | 14.5 | 0.00 | 0.00 | 0.00 | 60 | 1008.3 |
| 20260502230356 | 18 | 360 | 4.8 | 19.3 | 0.00 | 0.00 | 0.00 | 59 | 1008.3 |
| 20260502225333 | 18 | 360 | 4.8 | 11.3 | 0.00 | 0.00 | 0.00 | 60 | 1008.4 |
| 20260502224333 | 17 | 360 | 4.8 | 20.9 | 0.00 | 0.00 | 0.00 | 60 | 1008.4 |
| 20260502223333 | 18 | 360 | 4.8 | 17.7 | 0.00 | 0.00 | 0.00 | 60 | 1008.4 |
| 20260502222356 | 18 | 19 | 4.8 | 14.5 | 0.00 | 0.00 | 0.00 | 59 | 1008.7 |
| 20260502221335 | 18 | 331 | 6.4 | 17.7 | 0.00 | 0.00 | 0.00 | 60 | 1008.9 |
| 20260502220333 | 18 | 278 | 3.2 | 17.7 | 0.00 | 0.00 | 0.00 | 60 | 1008.9 |
| 20260502215330 | 18 | 360 | 8.0 | 22.5 | 0.00 | 0.00 | 0.00 | 61 | 1009.0 |
| 20260502214328 | 18 | 360 | 1.6 | 20.9 | 0.00 | 0.00 | 0.00 | 61 | 1009.2 |
| 20260502213328 | 18 | 327 | 1.6 | 11.3 | 0.00 | 0.00 | 0.00 | 61 | 1009.2 |
| 20260502212352 | 18 | 17 | 8.0 | 14.5 | 0.00 | 0.00 | 0.00 | 61 | 1009.3 |